FW8290 Weather Reports


Display with metric or nautical units.
time (UTC)temp
F
wind
direction
speed
MPH
gust
MPH
rain 1hr
in
rain 24hr
in
rain mn
in
humidity
%
barometer
mb
20260505051612 56 0 0.0 2.0 0.00 0.00 0.00 76 1011.3
20260505041552 61 0 0.0 2.0 0.00 0.00 0.00 64 1011.2
20260505040053 61 144 1.0 4.0 0.00 0.00 0.00 63 1011.1
20260505034549 61 0 0.0 0.0 0.00 0.00 0.00 62 1011.1
20260505033048 61 0 0.0 3.0 0.00 0.00 0.00 62 1011.1
20260505031553 60 93 0.0 2.0 0.00 0.00 0.00 61 1011.2
20260505030049 60 172 0.0 2.0 0.00 0.00 0.00 63 1011.2
20260505024554 61 0 0.0 2.0 0.00 0.00 0.00 58 1011.2
20260505023051 62 0 0.0 2.0 0.00 0.00 0.00 56 1011.2
20260505021554 63 57 0.0 2.0 0.00 0.00 0.00 54 1011.4
20260505020057 63 57 0.0 2.0 0.00 0.00 0.00 54 1011.5
20260505014557 63 0 0.0 1.0 0.00 0.00 0.00 53 1011.5
20260505013104 64 0 0.0 1.0 0.00 0.00 0.00 54 1011.3
20260505011553 65 0 0.0 0.0 0.00 0.00 0.00 52 1011.1
20260505010108 65 0 0.0 3.0 0.00 0.00 0.00 52 1011.0
20260505004553 66 0 0.0 3.0 0.00 0.00 0.00 49 1010.9
20260505003057 66 105 1.0 6.0 0.00 0.00 0.00 50 1010.8
20260505001604 67 0 0.0 1.0 0.00 0.00 0.00 48 1010.7
20260505000058 68 0 0.0 4.0 0.00 0.00 0.00 45 1010.6
20260504234550 69 0 0.0 5.0 0.00 0.00 0.00 45 1010.5
20260504233106 69 167 1.0 5.0 0.00 0.00 0.00 44 1010.5
20260504231552 70 0 0.0 5.0 0.00 0.00 0.00 45 1010.6
20260504230057 70 161 2.0 7.0 0.00 0.00 0.00 42 1010.5
20260504224551 70 117 1.0 5.0 0.00 0.00 0.00 43 1010.6
20260504223051 70 196 1.0 9.0 0.00 0.00 0.00 43 1010.5
20260504221550 71 235 1.0 9.0 0.00 0.00 0.00 41 1010.5
20260504220054 71 130 4.0 10.0 0.00 0.00 0.00 41 1010.7
20260504214555 72 134 2.0 10.0 0.00 0.00 0.00 40 1010.7
20260504213047 72 243 2.0 6.0 0.00 0.00 0.00 39 1010.6
20260504211547 72 247 3.0 8.0 0.00 0.00 0.00 40 1010.8
20260504210105 72 175 1.0 10.0 0.00 0.00 0.00 44 1010.6
20260504204559 72 138 2.0 11.0 0.00 0.00 0.00 39 1010.7
20260504203103 72 159 3.0 12.0 0.00 0.00 0.00 40 1010.9
20260504201555 71 140 2.0 9.0 0.00 0.00 0.00 45 1011.2
20260504200055 71 245 3.0 11.0 0.00 0.00 0.00 41 1011.3
20260504194555 71 238 2.0 9.0 0.00 0.00 0.00 41 1011.6
20260504193051 71 42 4.0 12.0 0.00 0.00 0.00 42 1011.7
20260504191550 71 182 2.0 9.0 0.00 0.00 0.00 43 1011.9
20260504190112 70 247 4.0 10.0 0.00 0.00 0.00 40 1012.0
20260504184550 70 258 3.0 9.0 0.00 0.00 0.00 41 1012.0
20260504183054 70 230 3.0 8.0 0.00 0.00 0.00 42 1012.2
20260504181555 69 258 3.0 13.0 0.00 0.00 0.00 41 1012.5
20260504180051 69 196 3.0 10.0 0.00 0.00 0.00 46 1012.6
20260504174553 69 127 2.0 13.0 0.00 0.00 0.00 41 1012.8
20260504173057 69 223 5.0 15.0 0.00 0.00 0.00 40 1013.0
20260504171553 68 188 3.0 11.0 0.00 0.00 0.00 43 1013.2
20260504081600 38 0 0.0 0.0 0.00 0.00 0.00 92 1015.6
20260504060106 39 0 0.0 0.0 0.00 0.00 0.00 90 1015.4